Location: Unspecified
(41.1637°N, 24.2901°E)
Time: 03:15:27
(UTC+01:00)

ISS - Pass Details

Date: 06 November 2025
Orbit: 414 x 420 km, 51.6° (Epoch: 18 November)

Event Time Altitude Azimuth Distance (km) Brightness Sun altitude
Exits shadow 03:58:24 12° 169° (SSE) 1,398 -1.0 -23.2°
Drops below altitude 10° 03:58:40 10° 166° (SSE) 1,490 -0.8 -23.1°
Sets 04:00:57 0° 154° (SSE) 2,351 0.4 -22.7°
